EW9901 Weather Reports


time (UTC)temp
C
wind
direction
speed
KPH
gust
KPH
rain 1hr
cm
rain 24hr
cm
rain mn
cm
humidity
%
barometer
mb
20190423110009 18 138 19.3 40.2 0.00 0.00 0.00 43 1008.9
20190423104506 18 113 12.9 46.7 0.00 0.00 0.00 44 1009.1
20190423103004 17 140 17.7 46.7 0.00 0.00 0.00 44 1009.3
20190423101711 17 69 16.1 48.3 0.00 0.00 0.00 44 1009.5
20190423100148 17 71 19.3 35.4 0.00 0.00 0.00 44 1009.7
20190423094635 17 108 14.5 32.2 0.00 0.00 0.00 46 1009.9
20190423093114 16 94 14.5 41.8 0.00 0.00 0.00 46 1010.2
20190423091638 16 141 16.1 40.2 0.00 0.00 0.00 46 1010.4
20190423090112 16 97 11.3 33.8 0.00 0.00 0.00 48 1010.6
20190423084615 15 128 17.7 35.4 0.00 0.00 0.00 50 1010.8
20190423083137 15 115 12.9 32.2 0.00 0.00 0.00 48 1010.8
20190423081628 15 104 17.7 33.8 0.00 0.00 0.00 49 1011.0
20190423080116 14 34 16.1 30.6 0.00 0.00 0.00 50 1011.3
20190423074551 13 146 11.3 38.6 0.00 0.00 0.00 51 1011.3
20190423073040 13 132 11.3 27.4 0.00 0.00 0.00 51 1011.3
20190423071523 13 94 14.5 38.6 0.00 0.00 0.00 52 1011.5
20190423070028 12 140 14.5 32.2 0.00 0.00 0.00 52 1011.6
20190423064512 12 88 11.3 24.1 0.00 0.00 0.00 53 1011.9
20190423063009 12 108 9.7 27.4 0.00 0.00 0.00 53 1011.8
20190423061505 11 115 11.3 24.1 0.00 0.00 0.00 54 1012.0
20190423060146 11 107 17.7 30.6 0.00 0.00 0.00 55 1012.0
20190423054643 11 42 12.9 32.2 0.00 0.00 0.00 56 1012.2
20190423053138 10 139 11.3 25.7 0.00 0.00 0.00 58 1012.3
20190423051652 10 84 11.3 30.6 0.00 0.00 0.00 58 1012.5
20190423050141 10 78 9.7 24.1 0.00 0.00 0.00 59 1012.6
20190423044656 9 96 12.9 24.1 0.00 0.00 0.00 60 1012.6
20190423043140 9 103 6.4 19.3 0.00 0.00 0.00 60 1012.6
20190423041748 9 78 8.0 22.5 0.00 0.00 0.00 60 1012.7
20190423040154 10 119 9.7 22.5 0.00 0.00 0.00 60 1012.7
20190423034613 10 92 11.3 25.7 0.00 0.00 0.00 61 1012.7
20190423033105 10 59 9.7 29.0 0.00 0.00 0.00 61 1012.8
20190423031545 10 107 6.4 17.7 0.00 0.00 0.00 61 1013.0
20190423030043 10 98 8.0 20.9 0.00 0.00 0.00 61 1013.1
20190423024532 10 98 8.0 19.3 0.00 0.00 0.00 61 1013.2
20190423023044 11 124 8.0 25.7 0.00 0.00 0.00 60 1013.2
20190423021531 11 94 16.1 24.1 0.00 0.00 0.00 60 1013.2
20190423020021 11 94 9.7 22.5 0.00 0.00 0.00 61 1013.3
20190423014528 11 93 8.0 20.9 0.00 0.00 0.00 61 1013.5
20190423013022 11 98 6.4 17.7 0.00 0.00 0.00 61 1013.6
20190423011522 11 98 8.0 17.7 0.00 0.00 0.00 62 1013.8
20190423010010 11 88 9.7 20.9 0.00 0.00 0.00 63 1014.0
20190423004502 11 84 6.4 16.1 0.00 0.00 0.00 64 1014.0
20190423003243 11 90 6.4 12.9 0.00 0.00 0.00 64 1014.1
20190423001742 11 95 8.0 22.5 0.00 0.00 0.00 62 1014.2
20190423000117 11 86 8.0 16.1 0.00 0.00 0.00 62 1014.3
20190422234629 11 90 6.4 19.3 0.00 0.00 0.00 62 1014.4
20190422233200 12 92 9.7 17.7 0.00 0.00 0.00 61 1014.5
20190422231635 12 113 9.7 16.1 0.00 0.00 0.00 61 1014.6
20190422230213 12 82 4.8 16.1 0.00 0.00 0.00 61 1014.7
20190422224549 12 102 8.0 20.9 0.00 0.00 0.00 61 1014.8
20190422223122 12 97 8.0 19.3 0.00 0.00 0.00 61 1014.8
20190422221638 12 96 8.0 25.7 0.00 0.00 0.00 61 1014.8
20190422220118 12 111 8.0 27.4 0.00 0.00 0.00 60 1014.9
20190422214550 13 107 12.9 29.0 0.00 0.00 0.00 60 1015.0
20190422213051 13 86 11.3 20.9 0.00 0.00 0.00 60 1015.0
20190422211610 13 78 11.3 25.7 0.00 0.00 0.00 60 1015.0
20190422210102 13 86 9.7 22.5 0.00 0.00 0.00 60 1015.1
20190422204555 12 108 11.3 22.5 0.00 0.00 0.00 60 1015.1
20190422203055 12 82 11.3 20.9 0.00 0.00 0.00 60 1015.2
20190422201551 12 80 8.0 19.3 0.00 0.00 0.00 59 1015.3
20190422200052 12 79 6.4 17.7 0.00 0.00 0.00 58 1015.3
20190422194544 13 86 6.4 17.7 0.00 0.00 0.00 58 1015.4
20190422193130 13 74 8.0 17.7 0.00 0.00 0.00 57 1015.5
20190422191541 13 80 6.4 17.7 0.00 0.00 0.00 56 1015.5
20190422190059 13 97 9.7 19.3 0.00 0.00 0.00 55 1015.4
20190422184544 13 88 6.4 20.9 0.00 0.00 0.00 53 1015.5
20190422183042 14 107 6.4 16.1 0.00 0.00 0.00 52 1015.5
20190422181541 15 115 3.2 19.3 0.00 0.00 0.00 50 1015.6
20190422180030 15 108 14.5 22.5 0.00 0.00 0.00 48 1015.6
20190422174537 15 114 12.9 22.5 0.00 0.00 0.00 47 1015.6
20190422173030 15 148 14.5 33.8 0.00 0.00 0.00 46 1015.6
20190422171528 15 134 12.9 37.0 0.00 0.00 0.00 45 1015.6
20190422170047 16 128 17.7 33.8 0.00 0.00 0.00 44 1015.6
20190422164547 16 97 12.9 37.0 0.00 0.00 0.00 43 1015.6
20190422163020 16 155 14.5 30.6 0.00 0.00 0.00 42 1015.6
20190422161522 16 108 19.3 35.4 0.00 0.00 0.00 41 1016.0
20190422160026 16 144 12.9 35.4 0.00 0.00 0.00 40 1015.6
20190422154521 16 169 16.1 48.3 0.00 0.00 0.00 38 1015.8
20190422153058 17 84 9.7 35.4 0.00 0.00 0.00 40 1015.8
20190422151512 17 171 11.3 32.2 0.00 0.00 0.00 37 1015.8
20190422150015 17 96 16.1 45.1 0.00 0.00 0.00 39 1016.0
20190422144527 17 113 8.0 33.8 0.00 0.00 0.00 39 1016.0
20190422143012 18 80 14.5 43.5 0.00 0.00 0.00 37 1015.9
20190422141514 18 84 12.9 40.2 0.00 0.00 0.00 40 1016.0
20190422140009 18 103 16.1 32.2 0.00 0.00 0.00 39 1015.9
20190422134508 18 93 12.9 32.2 0.00 0.00 0.00 41 1015.9
20190422133032 18 90 17.7 33.8 0.00 0.00 0.00 40 1016.1
20190422131511 18 120 16.1 37.0 0.00 0.00 0.00 40 1016.2
20190422130001 18 68 12.9 45.1 0.00 0.00 0.00 40 1016.3
20190422124628 18 78 19.3 37.0 0.00 0.00 0.00 41 1016.4
20190422123156 18 117 14.5 30.6 0.00 0.00 0.00 41 1016.6
20190422121758 18 79 16.1 35.4 0.00 0.00 0.00 39 1016.7
20190422120202 18 130 8.0 27.4 0.00 0.00 0.00 41 1016.9
20190422114637 18 65 12.9 27.4 0.00 0.00 0.00 42 1016.9
20190422113226 17 122 16.1 32.2 0.00 0.00 0.00 42 1017.1
20190422111610 17 74 9.7 22.5 0.00 0.00 0.00 42 1017.2
20190422110148 17 52 14.5 32.2 0.00 0.00 0.00 40 1017.4